Victoria, TX

2:06 AM CST on November 19, 2019 (GMT -0600)
Victoria Regional

Weather History for KVCT - October, 2019

Change the Weather History Date:

Monday, October 21, 2019

  Actual Average Record
Temperature  
Mean Temperature 70 °F 71 °F  
Max Temperature 84 °F 82 °F 96 °F (1926)
Min Temperature 57 °F 60 °F 41 °F (1976)
Degree Days  
Heating Degree Days 0 1  
Month to date heating degree days 0 6  
Since 1 July heating degree days 0 7  
Cooling Degree Days 6 7  
Month to date cooling degree days 270 186  
Year to date cooling degree days 3535 2984  
Growing Degree Days 20 (Base 50)    
Moisture  
Dew Point 66 °F    
Average Humidity 73    
Maximum Humidity 91    
Minimum Humidity 36    
Precipitation  
Precipitation 0.05 in 0.17 in 1.73 in (1983)
Month to date precipitation 1.73 3.23  
Year to date precipitation 21.09 34.26  
Snow  
Snow 0.00 in 0.00 in 0.00 in (2002)
Month to date snowfall 0.0 0.0  
Since 1 July snowfall 0.0 0.0  
Since 1 September snowfall 0.0 0.0  
Snow Depth 0.00 in    
Sea Level Pressure  
Sea Level Pressure 29.81 in    
Wind  
Wind Speed 10 mph ()    
Max Wind Speed 24 mph    
Max Gust Speed 33 mph    
Visibility 8.6 miles    
Events      
T = Trace of Precipitation, MM = Missing Value Source: Averaged Metar Reports

Daily Weather History Graph

Daily Weather History Graph

Search for Another Location

Airport or City:

Astronomy

Oct. 21, 2019 Rise Set
Actual Time 7:32 AM CDT 6:51 PM CDT
Civil Twilight 7:08 AM CDT 7:15 PM CDT
Nautical Twilight 6:40 AM CDT 7:43 PM CDT
Astronomical Twilight 6:13 AM CDT 8:10 PM CDT
Moon 12:21 AM CDT (10/21) 2:35 PM CDT (10/21)
Length of Visible Light 12h 07m
Length of Day
11h 19m
Waning Gibbous, 48% of the Moon is Illuminated
Oct 21
Waning Gibbous
Oct 27
New
Nov 4
First Quarter
Nov 12
Full
Nov 19
Last Quarter

Hourly Weather History & Observations

Time (CDT) Temp. Heat Index Dew Point Humidity Pressure Visibility Wind Dir Wind Speed Gust Speed Precip Events Conditions
12:17 AM 81.0 °F 87.9 °F 77.0 °F 88% 29.74 in 9.0 mi South 9.2 mph - N/A   Overcast
12:42 AM 81.0 °F 87.9 °F 77.0 °F 88% 29.74 in 9.0 mi South 11.5 mph - N/A   Overcast
12:51 AM 82.0 °F 90.2 °F 77.0 °F 85% 29.73 in 9.0 mi South 12.7 mph - N/A   Overcast
12:58 AM 82.0 °F 90.2 °F 77.0 °F 85% 29.73 in 9.0 mi South 13.8 mph - N/A   Overcast
1:18 AM 82.4 °F 90.9 °F 77.0 °F 84% 29.72 in 8.0 mi South 12.7 mph - N/A   Overcast
1:51 AM 81.0 °F 87.9 °F 77.0 °F 88% 29.69 in 8.0 mi South 17.3 mph - 0.00 in   Overcast
2:51 AM 81.0 °F 87.9 °F 77.0 °F 88% 29.70 in 8.0 mi South 11.5 mph - N/A   Overcast
3:51 AM 82.0 °F 90.2 °F 77.0 °F 85% 29.68 in 8.0 mi South 10.4 mph - N/A   Overcast
4:11 AM 82.0 °F 90.2 °F 77.0 °F 85% 29.70 in 8.0 mi South 15.0 mph - N/A   Overcast
4:51 AM 82.0 °F 90.2 °F 77.0 °F 85% 29.69 in 7.0 mi SSW 8.1 mph - N/A   Overcast
5:43 AM 81.0 °F 87.9 °F 77.0 °F 88% 29.69 in 6.0 mi SW 8.1 mph - 0.00 in   Mostly Cloudy
5:51 AM 81.0 °F 87.9 °F 77.0 °F 88% 29.68 in 6.0 mi SW 6.9 mph - 0.00 in   Scattered Clouds
6:51 AM 79.0 °F - 75.0 °F 88% 29.74 in 8.0 mi NNW 16.1 mph 23.0 mph N/A   Overcast
7:49 AM 69.8 °F - 66.2 °F 88% 29.77 in 10.0 mi NNW 9.2 mph - 0.05 in   Overcast
7:51 AM 70.0 °F - 66.0 °F 87% 29.77 in 10.0 mi NNW 8.1 mph - 0.05 in   Overcast
8:51 AM 70.0 °F - 66.0 °F 87% 29.81 in 10.0 mi North 5.8 mph - N/A   Scattered Clouds
9:51 AM 72.0 °F - 66.9 °F 84% 29.85 in 10.0 mi NNE 5.8 mph - N/A   Clear
10:51 AM 73.0 °F - 64.9 °F 76% 29.88 in 10.0 mi NNE 13.8 mph - N/A   Overcast
11:51 AM 75.9 °F - 61.0 °F 60% 29.87 in 10.0 mi NNE 13.8 mph - N/A   Clear
12:51 PM 78.1 °F - 62.1 °F 58% 29.87 in 10.0 mi North 12.7 mph - N/A   Mostly Cloudy
1:51 PM 80.1 °F 80.9 °F 60.1 °F 50% 29.84 in 10.0 mi NNE 9.2 mph - N/A   Scattered Clouds
2:51 PM 82.0 °F 81.6 °F 55.9 °F 41% 29.83 in 10.0 mi NNE 12.7 mph - N/A   Clear
3:51 PM 82.9 °F 82.0 °F 55.0 °F 38% 29.83 in 10.0 mi NNE 9.2 mph - N/A   Clear
4:51 PM 82.9 °F 81.8 °F 53.1 °F 36% 29.82 in 10.0 mi NNE 8.1 mph - N/A   Clear
5:51 PM 81.0 °F - 52.0 °F 36% 29.84 in 10.0 mi NNE 6.9 mph - N/A   Clear
6:51 PM 72.0 °F - 54.0 °F 53% 29.88 in 10.0 mi North 5.8 mph - N/A   Clear
7:51 PM 66.9 °F - 55.0 °F 66% 29.91 in 10.0 mi NNE 6.9 mph - N/A   Clear
8:51 PM 64.0 °F - 52.0 °F 65% 29.96 in 7.0 mi North 9.2 mph - N/A   Clear
9:51 PM 63.0 °F - 51.1 °F 65% 29.98 in 6.0 mi NNE 8.1 mph - N/A   Haze
10:51 PM 60.1 °F - 52.0 °F 75% 30.00 in 6.0 mi NNE 6.9 mph - N/A   Haze
11:51 PM 57.9 °F - 51.1 °F 78% 30.02 in 6.0 mi NNE 6.9 mph - N/A   Haze